www.pogodaiklimat.ru

Погода и климат >> Архив погоды >> Россия >> Краснодарский край >> Усть-Лабинск


ПОГОДА в Усть-Лабинске

  • Прогноз погоды в Усть-Лабинске
  • Монитор погоды в Усть-Лабинске

АРХИВ ПОГОДЫ в Усть-Лабинске

Время (UTC), дата Ветер
(напр.,м/с)
 
Видим.   Явления Облачность Т
(С)
Тd
(С)
f
(%)
Тe
(С)
Тes
(С)
Комфортность P
(гПа)
Po
(гПа)
Тmin
(С)
Tmax
(С)
R
(мм)
R24
(мм)
S
(см)
06 12.02 В 4 10 км 8/0
[Ac As]
+2.8 +1.7 92 -2 -2 1018.5 1006.8 +1.4
09 12.02 В 3 10 км 10/0
[Ac As Ci]
+8.8 +4.4 74 +6 +8 1017.1 1005.6
12 12.02 В 2 10 км 8/0
[Ac As Ci fib]
+12.2 +4.1 58 +11 +13 1016.0 1004.7
15 12.02 В 3 10 км 9/0
[Ac As Ci]
+9.0 +4.9 75 +7 +7 1016.3 1004.9 +12.4
18 12.02 В 3 10 км 4/0
[Ac trans]
+6.6 +3.0 78 +4 +4 1017.4 1005.8
21 12.02 В 3 10 км ясно +3.2 +1.5 89 -1 -1 1017.8 1006.1
00 13.02 В 3 10 км ясно +1.6 +0.5 92 -3 -3 1018.2 1006.4
03 13.02 В 2 10 км ясно +1.1 +0.1 93 -2 -2 1018.9 1007.1 +0.9
06 13.02 В 2 10 км 8/0
[Ci fib]
+2.7 +0.9 88 -1 +1 1020.6 1008.8 +0.9
09 13.02 ЮЗ 1 10 км 8/0
[Ci fib]
+12.4 +2.7 52 +13 +19 1020.8 1009.4
12 13.02 СЗ 3 10 км 9/0
[Ac trans Ci fib]
+11.4 +5.7 68 +10 +12 1021.4 1010.0
15 13.02 СЗ 1 10 км 9/3 600 м
[Cb cap Ac trans]
+7.9 +4.6 80 +7 +7 1022.7 1011.1 +12.6
18 13.02 СЗ 5 10 км 10/0
[Ac und]
+4.4 +2.0 84 -0 -0 1024.3 1012.5
21 13.02 СЗ 2 10 км 10/8 600 м
[Cb cap Ac und]
+3.3 +1.0 85 0 0 1025.2 1013.4
00 14.02 СЗ 1 10 км 10/8 600 м
[Cb cap Ac und]
+2.7 +0.9 88 +1 +1 1025.4 1013.5
03 14.02 С 1 10 км 10/6 600 м
[Cb cap Ac und]
+1.8 +0.4 90 0 0 1025.6 1013.7 +1.8
06 14.02 СВ 3 10 км 10/6 600 м
[Cb cap Ac und]
+1.8 -0.3 86 -3 -2 1026.4 1014.5 +1.5
09 14.02 СВ 4 10 км 10/8 600 м
[Cb cap Ac und]
+3.8 -0.6 73 -1 -0 1025.8 1014.0
12 14.02 СВ 5 10 км 10/8 600 м
[Cb cap Ac und]
+4.1 -0.8 70 -1 -1 1024.1 1012.4
15 14.02 СВ 4 10 км 10/4 600 м
[Cb cap Ac und]
+3.4 -1.3 71 -1 -1 1023.8 1012.0 +4.6
18 14.02 СВ 4 10 км 10/4 600 м
[Cb cap Ac trans Ci fib]
+2.1 -2.1 74 -3 -3 1023.8 1012.0
21 14.02 СВ 5
{10}
10 км 10/0
[Ac As Ci fib]
+0.3 -3.8 74 -5 -5 1023.7 1011.8
00 15.02 СВ 5 10 км 10/6 600 м
[Cb cap Ac und]
-0.3 -4.1 75 -6 -6 1023.9 1012.0
03 15.02 СВ 5 10 км 4/0
[Ac trans]
-1.3 -3.9 82 -8 -8 1023.8 1011.8 -1.3
06 15.02 СВ 5
{11}
10 км 10/3 600 м
[Cb cap Ac und]
-0.7 -3.0 84 -7 -7 1025.4 1013.5 -1.4
09 15.02 СВ 6 10 км 8/3 600 м
[Cb cap Ac trans Ci fib]
+1.5 -1.9 78 -5 -3 1024.7 1012.8
12 15.02 СВ 4 10 км 6/0
[Ac trans Ci fib]
+5.9 -0.5 63 +2 +4 1023.5 1011.8
15 15.02 СВ 4 10 км 8/0
[Ac trans Ci fib]
+3.6 -1.4 70 -1 -1 1023.9 1012.2 +6.2
18 15.02 СВ 2 10 км 4/0
[Ac trans]
+1.3 -2.0 79 -2 -2 1024.0 1012.1
21 15.02 СВ 2 10 км 3/0
[Ac trans]
-1.5 -3.8 84 -5 -5 1022.9 1010.9
00 16.02 СВ 1 10 км ясно -3.2 -5.5 84 -5 -5 1022.6 1010.5
03 16.02 СЗ 1 10 км ясно -4.3 -6.5 85 -7 -7 1022.5 1010.4 -4.3
06 16.02 З 1 10 км 9/0
[Ac trans]
-1.5 -5.0 77 -3 -2 1023.1 1011.2 -4.9
09 16.02 З 4 10 км 10/4 600 м
[Cb cap Ac und]
+1.0 -3.7 71 -4 -3 1023.1 1011.2
12 16.02 З 4 10 км 10/5 600 м
[Cb cap Ac und]
+1.9 -1.3 79 -3 -3 1022.0 1010.2
15 16.02 З 4 10 км 10/6 600 м
[Cb cap Ac und]
+1.7 -0.2 87 -3 -3 1022.0 1010.2 +2.4
18 16.02 З 5 10 км слаб. морось 10/10 300 м
[St]
+1.3 +0.9 97 -5 -5 1022.6 1010.7
21 16.02 З 4 10 км слаб. морось 10/10 300 м
[St]
+1.4 +0.8 96 -4 -4 1022.7 1010.8
00 17.02 ЮЗ 3 10 км слаб. ливневой дождь 10/8 300 м
[Cb cap Ac und]
+1.5 +1.3 99 -3 -3 1022.0 1010.2
03 17.02 ЮЗ 3 10 км в посл. час ливневой дождь 10/8 600 м
[Cb cap Ac und]
+1.9 +1.8 99 -3 -3 1021.8 1010.0 +1.2 0.7
06 17.02 ЮЗ 4 10 км слаб. ливневой дождь 10/8 300 м
[Cb cap Ac und]
+2.1 +2.0 99 -3 -3 1022.1 1010.2
09 17.02 ЮЗ 6-11
{11}
10 км слаб. ливневой дождь 10/8 300 м
[Cb cap Ac und]
+3.3 +2.9 97 -3 -2 1021.3 1009.6
12 17.02 ЮЗ 6-11
{13}
10 км {ливн. осадки} 9/3 600 м
[Cb cap Ac trans Cc]
+7.2 +4.5 83 +3 +3 1018.3 1006.7
15 17.02 ЮЗ 7-14
{15}
10 км 3/0
[Ac trans]
+6.8 +2.6 75 +2 +2 1016.8 1005.2 +8.7 0.5
18 17.02 ЮЗ 7-13
{14}
10 км 3/0
[Ac trans]
+6.2 +4.0 86 +1 +1 1015.6 1004.1
21 17.02 ЮЗ 7-14
{15}
10 км 9/6 600 м
[Cb cap Ac trans]
+6.6 +3.6 81 +2 +2 1014.9 1003.4
00 18.02 ЮЗ 6-12
{17}
10 км 10/6 600 м
[Cb cap Ac und]
+6.8 +3.8 81 +2 +2 1013.8 1002.3
03 18.02 ЮЗ 7-15
{17}
10 км 10/6 600 м
[Cb cap Ac und]
+6.6 +4.3 85 +2 +2 1012.2 1000.7 +5.9
06 18.02 З 5
{15}
10 км {ливн. осадки} 10/8 600 м
[Cb cap Ac und]
+4.6 +2.5 86 -0 -0 1014.5 1002.9 +4.6
09 18.02 З 7-13
{13}
10 км 8/3 1000 м
[Cb cap Ac trans Ci fib]
+6.6 +0.2 64 +2 +3 1015.3 1003.8
12 18.02 З 5-10
{13}
10 км 8/0
[Ac trans Ci fib]
+7.1 -2.0 52 +4 +5 1015.2 1003.6
15 18.02 З 4
{12}
10 км 9/3 600 м
[Cb cap Ac trans Ci fib]
+4.6 -3.2 57 +1 +1 1017.0 1005.3 +7.2 0.0
18 18.02 З 3 10 км 3/0
[Ac trans]
+1.2 -3.6 70 -3 -3 1019.7 1007.8
21 18.02 С 2 10 км ясно -1.0 -4.7 76 -5 -5 1021.3 1009.4
00 19.02 СЗ 1 10 км ясно -3.0 -6.0 80 -5 -5 1022.8 1010.8

 

Местоположение метеостанции Усть-Лабинск (Краснодарский край, Россия): широта 45.23 долгота 39.73 высота над уровнем моря 94 м.

В архиве по умолчанию представлена погода в Усть-Лабинске за последнюю неделю. Архивные данные за месяц целиком и за предыдущие месяцы, начиная с января 2011 года, Вы можете получить, выбрав интересующий диапазон дат из раскрывающегося списка и нажав кнопку "Ввод!".


*Определитесь, кто Вы:
робот инопланетянин человек

Внимание! Время в таблицах - всемирное. Для получения местного времени необходимо прибавить поправку, которая равна 3 ч.

Смотрите также архив погоды в соседних городах и на ближайших метеорологических станциях:

Погода в Кореновске (Краснодарский край, Россия) (33 км)
Погода в Белореченске (Краснодарский край, Россия) (55 км)
Погода в Краснодаре (Краснодарский край, Россия) (58 км)
Погода в Дондуковской (Адыгея, Россия) (64 км)
Погода в Кропоткине (Краснодарский край, Россия) (69 км)
Погода в Майкопе (Адыгея, Россия) (73 км)
Погода в Тихорецке (Краснодарский край, Россия) (74 км)
Погода в Тимашевске (Краснодарский край, Россия) (77 км)
Погода в Горячем Ключе (Краснодарский край, Россия) (83 км)
Погода в Шунтуке (Адыгея, Россия) (90 км)

Пояснения к столбцам:

Ветер - указаны скорость ветра в м/с - средняя за 10 мин, порывы в срок и между сроками (в фигурных скобках) и направление, откуда дует ветер: С - северный, СВ - северо-восточный, В - восточный, ЮВ - юго-восточный, Ю - южный, ЮЗ - юго-западный, З - западный, СЗ - северо-западный.
Видимость - горизонтальная дальность видимости в метрах или километрах. При видимости от 1 до 10 км при отсутствии осадков обычно наблюдается дымка, при ухудшении видимости до 1 км и менее - туман. В сухую погоду видимость может ухудшаться дымом, пылью или мглою.
Явления - указаны атмосферные явления, наблюдавшиеся в срок или в последний час перед сроком; фигурными скобками обозначены явления, наблюдавшиеся между сроками (за 1-3 часа до срока); квадратными скобками обозначены град или гололедные отложения с указанием их диаметра в мм.
Облачность - указаны через наклонную черту общая и нижняя облачность в баллах и высота нижней границы облаков в метрах; квадратными скобками обозначены формы облаков: Ci - перистые, Cs - перисто-слоистые, Cc - перисто-кучевые, Ac - высококучевые, As - высокослоистые, Sc - слоисто-кучевые, Ns - слоисто-дождевые, Cu - кучевые, Cb - кучево-дождевые. Подробнее классификацию облаков см. в Атласе облаков (PDF).
T - Температура воздуха - температура, измеренная на высоте 2 м над землей.
Td - Температура точки росы - температура, при понижении до которой содержащийся в воздухе водяной пар достигнет насыщения.
f - Относительная влажность воздуха - влажноcть воздуха, измеренная на высоте 2 м над землей.
Te - Эффективная температура - температура, которую ощущает одетый по сезону человек в тени. Характеристика душности погоды. При расчете учитывается влияние влажности воздуха и скорости ветра на теплоощущения человека.
Tes - Эффективная температура на солнце - температура, которую ощущает человек, с поправкой на солнечный нагрев. Характеристика знойности погоды. Зависит от высоты солнца над горизонтом, облачности и скорости ветра. Ночью, в пасмурную погоду, а также при ветре 12 м/с и более поправка равна нулю.
P - Атмосферное давление - приведенное к уровню моря атмосферное давление.
Po - Атмосферное давление - измеренное на уровне метеостанции атмосферное давление.
Tmin - Минимальная температура - минимум температуры воздуха на высоте 2 м над землей.
Tmax - Максимальная температура - максимум температуры воздуха на высоте 2 м над землей.
R - Количество осадков - Количество выпавших осадков за период времени, мм. При наведении курсора мыши на число - период времени, за который выпало указанное количество осадков.
R24 - Количество осадков - Количество выпавших осадков за 24 часа, мм.
S - Снежный покров - Высота снежного покрова, см. При наведении курсора мыши на число - состояние снежного покрова и степень покрытия местности в баллах.